Truth Or Consequences, NM

8:13 AM MDT on April 23, 2017 (GMT -0600)
Truth Or Consequences Municipal

Weather History for KTCS - March, 2013

Change the Weather History Date:

Sunday, March 31, 2013

  Actual Average Record
Temperature  
Mean Temperature 63 °F -  
Max Temperature 76 °F 70 °F 84 °F (2011)
Min Temperature 51 °F 41 °F 30 °F (1998)
Degree Days  
Heating Degree Days 2    
Month to date heating degree days  
Since 1 July heating degree days  
Cooling Degree Days 0    
Month to date cooling degree days  
Year to date cooling degree days  
Growing Degree Days 13 (Base 50)    
Moisture  
Dew Point 24 °F    
Average Humidity 25    
Maximum Humidity 35    
Minimum Humidity 14    
Precipitation  
Precipitation 0.00 in - 0.00 in (2017)
Month to date precipitation 0.06  
Year to date precipitation 0.14  
Sea Level Pressure  
Sea Level Pressure 29.86 in    
Wind  
Wind Speed 10 mph (WNW)    
Max Wind Speed 17 mph    
Max Gust Speed 22 mph    
Visibility 10 miles    
Events      
T = Trace of Precipitation, MM = Missing Value Source: NWS Daily Summary

Daily Weather History Graph

Daily Weather History Graph

Search for Another Location

Airport or City:

Trip Planner

Search our weather history database for the weather conditions in past years. The results will help you decide how hot, cold, wet, or windy it might be!

Date:

Astronomy

Mar. 31, 2013 Rise Set
Actual Time 6:57 AM MDT 7:28 PM MDT
Civil Twilight 6:32 AM MDT 7:53 PM MDT
Nautical Twilight 6:03 AM MDT 8:23 PM MDT
Astronomical Twilight 5:33 AM MDT 8:53 PM MDT
Moon No Moon Rise 10:01 AM MDT (3/31)
Length of Visible Light 13h 21m
Length of Day
12h 31m
Waning Gibbous, 77% of the Moon is Illuminated
Mar 31
Waning Gibbous
Apr 2
Last Quarter
Apr 10
New
Apr 18
First Quarter
Apr 25
Full

Hourly Weather History & Observations

Time (MDT) Temp. Dew Point Humidity Pressure Visibility Wind Dir Wind Speed Gust Speed Precip Events Conditions
12:53 AM 62.1 °F 27.0 °F 26% 29.88 in 10.0 mi NW 11.5 mph - N/A   Overcast
1:53 AM 60.1 °F 27.0 °F 28% 29.87 in 10.0 mi NW 11.5 mph - N/A   Clear
2:53 AM 59.0 °F 27.0 °F 29% 29.86 in 10.0 mi NW 9.2 mph - N/A   Mostly Cloudy
3:53 AM 57.9 °F 27.0 °F 31% 29.85 in 10.0 mi NW 9.2 mph - N/A   Mostly Cloudy
4:53 AM 55.0 °F 26.1 °F 33% 29.86 in 10.0 mi NNW 6.9 mph - N/A   Scattered Clouds
5:53 AM 54.0 °F 26.1 °F 34% 29.88 in 10.0 mi NW 10.4 mph - N/A   Clear
6:53 AM 53.1 °F 26.1 °F 35% 29.91 in 10.0 mi NW 5.8 mph - N/A   Clear
7:53 AM 55.0 °F 25.0 °F 31% 29.93 in 10.0 mi WNW 6.9 mph - N/A   Clear
8:53 AM 61.0 °F 25.0 °F 25% 29.94 in 10.0 mi NNE 8.1 mph - N/A   Clear
9:53 AM 64.0 °F 28.9 °F 27% 29.94 in 10.0 mi NNE 12.7 mph - N/A   Clear
10:53 AM 66.9 °F 30.0 °F 25% 29.93 in 10.0 mi NNE 12.7 mph 16.1 mph N/A   Clear
11:53 AM 69.1 °F 27.0 °F 21% 29.93 in 10.0 mi NNE 8.1 mph - N/A   Clear
12:53 PM 72.0 °F 27.0 °F 19% 29.91 in 10.0 mi Variable 3.5 mph - N/A   Clear
1:53 PM 72.0 °F 26.1 °F 18% 29.88 in 10.0 mi East 4.6 mph - N/A   Clear
2:53 PM 73.0 °F 24.1 °F 16% 29.85 in 10.0 mi Variable 4.6 mph - N/A   Clear
3:53 PM 75.0 °F 23.0 °F 14% 29.81 in 10.0 mi ESE 9.2 mph 18.4 mph N/A   Clear
4:53 PM 75.0 °F 23.0 °F 14% 29.80 in 10.0 mi SSW 9.2 mph 20.7 mph N/A   Clear
5:53 PM 75.9 °F 21.9 °F 13% 29.78 in 10.0 mi South 13.8 mph - N/A   Clear
6:53 PM 73.9 °F 21.0 °F 14% 29.77 in 10.0 mi South 11.5 mph - N/A   Clear
7:53 PM 70.0 °F 19.9 °F 15% 29.78 in 10.0 mi SSE 9.2 mph - N/A   Clear
8:53 PM 70.0 °F 19.9 °F 15% 29.76 in 10.0 mi South 12.7 mph 20.7 mph N/A   Clear
9:53 PM 66.9 °F 19.9 °F 17% 29.80 in 10.0 mi SSW 11.5 mph - N/A   Clear
10:53 PM 66.9 °F 19.0 °F 16% 29.81 in 10.0 mi SW 6.9 mph - N/A   Clear
11:53 PM 61.0 °F 19.0 °F 20% 29.82 in 10.0 mi WNW 6.9 mph - N/A   Clear